Ely, MN

12:06 PM CDT on July 20, 2017 (GMT -0500)
Ely Municipal

Weather History for KELO - May, 2015

Change the Weather History Date:

Friday, May 8, 2015

  Actual Average Record
Temperature  
Mean Temperature 46 °F -  
Max Temperature 53 °F 57 °F 80 °F (2007)
Min Temperature 39 °F 34 °F 24 °F (2017)
Degree Days  
Heating Degree Days 19    
Moisture  
Dew Point 37 °F    
Average Humidity 78    
Maximum Humidity 94    
Minimum Humidity 58    
Precipitation  
Precipitation 0.00 in - - ()
Sea Level Pressure  
Sea Level Pressure 29.94 in    
Wind  
Wind Speed 9 mph (NW)    
Max Wind Speed 15 mph    
Max Gust Speed 22 mph    
Visibility 9 miles    
Events      
Averages and records for this station are not official NWS values.
T = Trace of Precipitation, MM = Missing Value Source: NWS Daily Summary

Daily Weather History Graph

Daily Weather History Graph

Search for Another Location

Airport or City:

Trip Planner

Search our weather history database for the weather conditions in past years. The results will help you decide how hot, cold, wet, or windy it might be!

Date:

Astronomy

May. 08, 2015 Rise Set
Actual Time 5:39 AM CDT 8:29 PM CDT
Civil Twilight 5:03 AM CDT 9:05 PM CDT
Nautical Twilight 4:17 AM CDT 9:51 PM CDT
Astronomical Twilight 3:23 AM CDT 10:46 PM CDT
Moon No Moon Rise 9:26 AM CDT (5/8)
Length of Visible Light 16h 01m
Length of Day
14h 50m
Waning Gibbous, 79% of the Moon is Illuminated
May 8
Waning Gibbous
May 11
Last Quarter
May 17
New
May 25
First Quarter
Jun 2
Full

Hourly Weather History & Observations

Time (CDT) Temp. Windchill Dew Point Humidity Pressure Visibility Wind Dir Wind Speed Gust Speed Precip Events Conditions
12:11 AM 53.6 °F - 51.8 °F 94% 29.70 in 7.0 mi West 13.8 mph - N/A   Overcast
12:33 AM 51.8 °F - 48.2 °F 88% 29.71 in 10.0 mi WNW 10.4 mph 18.4 mph N/A   Overcast
12:53 AM 51.8 °F - 48.2 °F 88% 29.71 in 10.0 mi West 10.4 mph 18.4 mph N/A   Overcast
1:13 AM 48.2 °F - 46.4 °F 93% 29.73 in 7.0 mi West 11.5 mph 19.6 mph N/A   Overcast
1:32 AM 46.4 °F 41.5 °F 42.8 °F 87% 29.74 in 10.0 mi West 10.4 mph - N/A   Overcast
1:53 AM 44.6 °F 38.1 °F 42.8 °F 93% 29.74 in 10.0 mi WNW 13.8 mph 19.6 mph N/A   Overcast
2:13 AM 44.6 °F 39.7 °F 41.0 °F 87% 29.75 in 10.0 mi West 9.2 mph 18.4 mph N/A   Overcast
2:33 AM 42.8 °F 36.6 °F 39.2 °F 87% 29.76 in 7.0 mi WNW 11.5 mph 17.3 mph N/A   Overcast
2:53 AM 42.8 °F 37.0 °F 39.2 °F 87% 29.76 in 10.0 mi WNW 10.4 mph 17.3 mph N/A   Overcast
3:13 AM 42.8 °F 38.0 °F 39.2 °F 87% 29.77 in 10.0 mi WNW 8.1 mph - N/A   Overcast
3:33 AM 42.8 °F 37.5 °F 39.2 °F 87% 29.78 in 10.0 mi West 9.2 mph - N/A   Overcast
3:53 AM 41.0 °F 35.8 °F 37.4 °F 87% 29.78 in 10.0 mi WNW 8.1 mph - N/A   Overcast
4:13 AM 41.0 °F 36.4 °F 39.2 °F 93% 29.79 in 10.0 mi WNW 6.9 mph - N/A   Overcast
4:33 AM 41.0 °F 37.1 °F 37.4 °F 87% 29.79 in 10.0 mi WNW 5.8 mph - N/A   Overcast
4:53 AM 41.0 °F 35.8 °F 37.4 °F 87% 29.80 in 10.0 mi West 8.1 mph - N/A   Overcast
5:13 AM 39.2 °F 32.5 °F 37.4 °F 93% 29.81 in 10.0 mi WNW 10.4 mph - N/A   Overcast
5:33 AM 39.2 °F 35.0 °F 37.4 °F 93% 29.83 in 7.0 mi WNW 5.8 mph - N/A   Overcast
5:53 AM 39.2 °F 33.6 °F 37.4 °F 93% 29.83 in 4.0 mi NW 8.1 mph - N/A   Light Drizzle
6:13 AM 39.2 °F 33.6 °F 37.4 °F 93% 29.85 in 5.0 mi WNW 8.1 mph - N/A   Overcast
6:33 AM 39.2 °F 33.0 °F 37.4 °F 93% 29.86 in 5.0 mi WNW 9.2 mph 16.1 mph N/A   Overcast
6:53 AM 39.2 °F 32.5 °F 37.4 °F 93% 29.87 in 3.0 mi WNW 10.4 mph 17.3 mph N/A   Overcast
7:13 AM 39.2 °F 33.0 °F 37.4 °F 93% 29.88 in 3.0 mi WNW 9.2 mph 16.1 mph N/A   Overcast
7:33 AM 39.2 °F 33.0 °F 37.4 °F 93% 29.88 in 10.0 mi WNW 9.2 mph 16.1 mph N/A   Overcast
7:53 AM 39.2 °F 34.2 °F 37.4 °F 93% 29.89 in 10.0 mi WNW 6.9 mph - N/A   Overcast
8:13 AM 39.2 °F 33.6 °F 37.4 °F 93% 29.90 in 10.0 mi WNW 8.1 mph - N/A   Drizzle
8:33 AM 39.2 °F 33.0 °F 37.4 °F 93% 29.90 in 10.0 mi WNW 9.2 mph - N/A   Overcast
8:52 AM 39.2 °F 32.0 °F 35.6 °F 87% 29.90 in 10.0 mi WNW 11.5 mph - N/A   Overcast
9:13 AM 39.2 °F 33.6 °F 35.6 °F 87% 29.91 in 10.0 mi NW 8.1 mph 17.3 mph N/A   Overcast
9:33 AM 39.2 °F 30.8 °F 35.6 °F 87% 29.92 in 10.0 mi WNW 15.0 mph 21.9 mph N/A   Overcast
9:52 AM 41.0 °F 35.2 °F 37.4 °F 87% 29.93 in 10.0 mi NW 9.2 mph - N/A   Overcast
10:13 AM 41.0 °F 35.2 °F 35.6 °F 81% 29.93 in 10.0 mi NW 9.2 mph 18.4 mph N/A   Overcast
10:33 AM 39.2 °F 31.2 °F 35.6 °F 87% 29.94 in 7.0 mi WNW 13.8 mph 18.4 mph N/A   Overcast
10:52 AM 39.2 °F 32.5 °F 37.4 °F 93% 29.95 in 7.0 mi WNW 10.4 mph 17.3 mph N/A   Overcast
11:13 AM 41.0 °F 34.7 °F 35.6 °F 81% 29.96 in 10.0 mi NW 10.4 mph 16.1 mph N/A   Overcast
11:32 AM 42.8 °F 36.6 °F 35.6 °F 76% 29.97 in 10.0 mi NW 11.5 mph 17.3 mph N/A   Overcast
11:53 AM 42.8 °F 38.0 °F 35.6 °F 76% 29.97 in 10.0 mi WNW 8.1 mph - N/A   Overcast
12:13 PM 42.8 °F 38.6 °F 35.6 °F 76% 29.97 in 10.0 mi NNW 6.9 mph - N/A   Overcast
12:33 PM 46.4 °F 41.5 °F 35.6 °F 66% 29.98 in 10.0 mi West 10.4 mph - N/A   Overcast
12:53 PM 44.6 °F 38.8 °F 35.6 °F 71% 29.99 in 10.0 mi NW 11.5 mph 18.4 mph N/A   Overcast
1:13 PM 46.4 °F 41.1 °F 35.6 °F 66% 29.98 in 10.0 mi WNW 11.5 mph 18.4 mph N/A   Overcast
1:33 PM 46.4 °F 40.7 °F 35.6 °F 66% 29.99 in 10.0 mi NW 12.7 mph 19.6 mph N/A   Overcast
1:53 PM 46.4 °F 42.4 °F 35.6 °F 66% 30.00 in 10.0 mi NW 8.1 mph 16.1 mph N/A   Overcast
2:13 PM 48.2 °F - 35.6 °F 62% 30.00 in 10.0 mi NW 10.4 mph 17.3 mph N/A   Overcast
2:33 PM 48.2 °F - 35.6 °F 62% 30.01 in 10.0 mi WNW 10.4 mph 18.4 mph N/A   Overcast
2:52 PM 48.2 °F - 35.6 °F 62% 30.01 in 10.0 mi NW 9.2 mph 18.4 mph N/A   Overcast
3:13 PM 48.2 °F - 35.6 °F 62% 30.01 in 10.0 mi NW 10.4 mph 17.3 mph N/A   Overcast
3:33 PM 48.2 °F - 35.6 °F 62% 30.01 in 10.0 mi WNW 9.2 mph - N/A   Overcast
3:53 PM 48.2 °F - 35.6 °F 62% 30.02 in 10.0 mi NNW 8.1 mph 17.3 mph N/A   Overcast
4:13 PM 50.0 °F - 35.6 °F 58% 30.02 in 10.0 mi West 10.4 mph 16.1 mph N/A   Overcast
4:32 PM 48.2 °F - 35.6 °F 62% 30.02 in 10.0 mi NW 9.2 mph - N/A   Overcast
4:53 PM 48.2 °F - 35.6 °F 62% 30.02 in 10.0 mi North 6.9 mph - N/A   Mostly Cloudy
5:13 PM 48.2 °F - 35.6 °F 62% 30.02 in 10.0 mi NNW 5.8 mph - N/A   Mostly Cloudy
5:33 PM 48.2 °F - 35.6 °F 62% 30.03 in 10.0 mi NW 11.5 mph 17.3 mph N/A   Mostly Cloudy
5:53 PM 48.2 °F - 35.6 °F 62% 30.04 in 10.0 mi NNW 8.1 mph 17.3 mph N/A   Mostly Cloudy
6:13 PM 48.2 °F - 35.6 °F 62% 30.04 in 10.0 mi NW 4.6 mph - N/A   Scattered Clouds
6:33 PM 46.4 °F 44.3 °F 35.6 °F 66% 30.04 in 10.0 mi NW 4.6 mph - N/A   Scattered Clouds
6:53 PM 48.2 °F - 35.6 °F 62% 30.06 in 10.0 mi NW 6.9 mph - N/A   Scattered Clouds
7:13 PM 48.2 °F - 35.6 °F 62% 30.05 in 10.0 mi NNW 5.8 mph - N/A   Mostly Cloudy
7:33 PM 46.4 °F 42.9 °F 35.6 °F 66% 30.05 in 10.0 mi NNW 6.9 mph - N/A   Scattered Clouds
7:53 PM 46.4 °F 44.3 °F 35.6 °F 66% 30.06 in 10.0 mi NW 4.6 mph - N/A   Mostly Cloudy
8:13 PM 46.4 °F 44.3 °F 35.6 °F 66% 30.07 in 10.0 mi NW 4.6 mph - N/A   Overcast
8:33 PM 44.6 °F 42.2 °F 35.6 °F 71% 30.08 in 10.0 mi NNW 4.6 mph - N/A   Overcast
8:53 PM 44.6 °F 41.4 °F 35.6 °F 71% 30.09 in 10.0 mi NW 5.8 mph - N/A   Overcast
9:13 PM 44.6 °F 42.2 °F 35.6 °F 71% 30.10 in 10.0 mi NNW 4.6 mph - N/A   Overcast
9:33 PM 44.6 °F - 35.6 °F 71% 30.11 in 10.0 mi Calm Calm - N/A   Overcast
9:53 PM 42.8 °F 41.1 °F 35.6 °F 76% 30.12 in 10.0 mi NW 3.5 mph - N/A   Overcast
10:13 PM 42.8 °F 39.3 °F 35.6 °F 76% 30.12 in 10.0 mi NNW 5.8 mph - N/A   Overcast
10:32 PM 42.8 °F 38.6 °F 35.6 °F 76% 30.13 in 10.0 mi NNW 6.9 mph - N/A   Overcast
10:53 PM 42.8 °F - 35.6 °F 76% 30.13 in 10.0 mi Calm Calm - N/A   Overcast
11:13 PM 42.8 °F 40.1 °F 35.6 °F 76% 30.13 in 10.0 mi North 4.6 mph - N/A   Overcast
11:33 PM 41.0 °F 38.0 °F 33.8 °F 76% 30.13 in 10.0 mi NNW 4.6 mph - N/A   Overcast
11:53 PM 41.0 °F 39.0 °F 35.6 °F 81% 30.13 in 10.0 mi North 3.5 mph - N/A   Overcast